Regional Weather Roundup
Issued by NWS

Home | Current Version | Previous Version | Graphics & Text | Print | Product List | Glossary On
Versions: 1 2 3 4 5 6 7 8 9 10 11 12 13 14 15 16 17 18 19 20 21 22 23 24 25 26 27 28 29 30 31 32 33 34 35 36 37 38 39 40 41 42 43 44 45 46 47 48 49 50
816
ASUS43 KOAX 191510
RWRNE

WEATHER ROUNDUP FOR NEBRASKA
NATIONAL WEATHER SERVICE OMAHA NE
1000 AM CDT SAT AUG 19 2017

NOTES: SATELLITE DATA IS BEING USED TO AUGMENT CLOUD COVER ABOVE
       12000 FEET.
       "FAIR" INDICATES FEW OR NO CLOUDS BELOW 12,000 FEET WITH NO
       SIGNIFICANT WEATHER AND/OR OBSTRUCTIONS TO VISIBILITY.


NEZ001>004-019>022-054>056-191600-
NEBRASKA PANHANDLE

CITY           SKY/WX    TMP DP  RH WIND       PRES   REMARKS
SCOTTSBLUFF    SUNNY     75  51  43 NW6       29.98S
ALLIANCE       SUNNY     75  55  49 SW9       29.96S
CHADRON        SUNNY     73  51  46 SW7       29.91F
GORDON         FAIR      75  56  52 SW15      29.92F
KIMBALL        SUNNY     76  50  39 W8        30.05S
SIDNEY         SUNNY     76  56  49 SW13      30.02F
$$

NEZ057>060-069>072-079>082-191600-
SOUTHWEST NEBRASKA

CITY           SKY/WX    TMP DP  RH WIND       PRES   REMARKS
NORTH PLATTE   SUNNY     71  61  70 CALM      29.98F
IMPERIAL       SUNNY     75  60  59 SW10      30.00F
LEXINGTON      SUNNY     73  64  71 SE7       29.98S
MCCOOK         SUNNY     72  62  71 SE3       29.98F
OGALLALA       SUNNY     74  62  66 SW3       29.99F
$$

NEZ005>010-023>029-035>040-094-191600-
NORTH CENTRAL NEBRASKA

CITY           SKY/WX    TMP DP  RH WIND       PRES   REMARKS
VALENTINE      SUNNY     76  56  49 S12       29.92F
AINSWORTH      MOSUNNY   72  61  67 S13       29.94F
BROKEN BOW     SUNNY     73  61  65 SE14      29.97F
O`NEILL        SUNNY     70  59  67 SE9       29.97F
ORD            SUNNY     71  58  63 S9        29.97F
THEDFORD       SUNNY     75  57  53 S10       29.98R
$$

NEZ041-046>049-061>064-073>077-083>087-191600-
SOUTH CENTRAL NEBRASKA

CITY           SKY/WX    TMP DP  RH WIND       PRES   REMARKS
GRAND ISLAND   SUNNY     71  63  75 SE7       30.00S
AURORA         SUNNY     70  63  78 SE7       30.00S
HASTINGS       SUNNY     75  64  68 VRB3      30.00S
HEBRON         SUNNY     75  63  66 E5        29.98S
HOLDREGE       SUNNY     73  65  75 SE8       29.99F
KEARNEY        SUNNY     74  66  76 SE8       30.00S
YORK           SUNNY     70  63  78 SE5       30.00R
$$

NEZ011>018-030>034-042>045-191600-
NORTHEAST NEBRASKA

CITY           SKY/WX    TMP DP  RH WIND       PRES   REMARKS
NORFOLK        SUNNY     68  62  81 SE8       29.97S
ALBION         SUNNY     69  62  77 SE6       29.99S
BLAIR          SUNNY     69  62  78 NE5       29.98F
COLUMBUS       SUNNY     69  63  81 E7        29.99F
FREMONT        SUNNY     69  63  82 CALM      30.00R
TEKAMAH        SUNNY     67  62  84 CALM      29.98S
WAYNE          SUNNY     68  65  91 CALM      29.97F
$$

NEZ050>053-065>068-078-088>093-191600-
SOUTHEAST NEBRASKA

CITY           SKY/WX    TMP DP  RH WIND       PRES   REMARKS
LINCOLN        SUNNY     72  61  68 E6        29.99S
OMAHA EPPLEY   SUNNY     70  61  73 N5        29.98F
BEATRICE       SUNNY     74  63  68 E7        29.98F
FALLS CITY     SUNNY     75  65  70 N5        29.97S
NEBRASKA CITY  SUNNY     73  65  74 E3        29.99S
PLATTSMOUTH    SUNNY     70  61  74 CALM      29.99S
$$

NEZ044-045-051>053-067-191600-
OMAHA AREA

CITY           SKY/WX    TMP DP  RH WIND       PRES   REMARKS
OMAHA EPPLEY   SUNNY     70  61  73 N5        29.98F
BLAIR          SUNNY     69  62  78 NE5       29.98F
FREMONT        SUNNY     69  63  82 CALM      30.00R
MILLARD        SUNNY     73  62  69 CALM      29.98S
OFFUTT AFB     SUNNY     72  62  71 CALM      29.98S
PLATTSMOUTH    SUNNY     70  61  74 CALM      29.99S
WAHOO          FAIR      69  63  79 CALM      29.99S
$$




USA.gov is the U.S. government's official web portal to all federal, state and local government web resources and services.